TimeGMT,TemperatureF,Dew PointF,Humidity,Sea Level PressureIn,VisibilityMPH,Wind Direction,Wind SpeedMPH,Gust SpeedMPH,PrecipitationIn,Events,Conditions,WindDirDegrees,DateUTC
6:20 AM,28.4,23.0,80,30.06,6.2,WNW,4.6,-,N/A,,Partly Cloudy,290,2012-11-28 06:20:00
6:50 AM,32.0,26.6,80,30.09,6.2,NNW,4.6,-,N/A,,Partly Cloudy,330,2012-11-28 06:50:00
7:20 AM,30.2,24.8,80,30.09,6.2,WNW,5.8,-,N/A,,Partly Cloudy,300,2012-11-28 07:20:00
7:50 AM,32.0,26.6,80,30.09,6.2,WNW,4.6,-,N/A,,Partly Cloudy,300,2012-11-28 07:50:00
8:20 AM,33.8,28.4,81,30.09,6.2,NW,3.5,-,N/A,,Partly Cloudy,310,2012-11-28 08:20:00
8:50 AM,28.4,24.8,86,30.09,6.2,WNW,5.8,-,N/A,,Partly Cloudy,300,2012-11-28 08:50:00
9:20 AM,32.0,28.4,87,30.09,6.2,WNW,4.6,-,N/A,,Partly Cloudy,300,2012-11-28 09:20:00
9:50 AM,33.8,28.4,81,30.09,6.2,WNW,4.6,-,N/A,,Partly Cloudy,300,2012-11-28 09:50:00
10:20 AM,35.6,30.2,81,30.09,6.2,WNW,4.6,-,N/A,,Partly Cloudy,300,2012-11-28 10:20:00
10:50 AM,37.4,30.2,75,30.09,6.2,WNW,4.6,-,N/A,,Partly Cloudy,300,2012-11-28 10:50:00
11:20 AM,39.2,32.0,75,30.09,6.2,WSW,5.8,-,N/A,,Partly Cloudy,240,2012-11-28 11:20:00
11:50 AM,39.2,32.0,75,30.09,6.2,WSW,6.9,-,N/A,,Partly Cloudy,250,2012-11-28 11:50:00
12:20 PM,39.2,32.0,75,30.06,6.2,West,5.8,-,N/A,,Partly Cloudy,260,2012-11-28 12:20:00
12:50 PM,42.8,32.0,66,30.06,6.2,West,5.8,-,N/A,,Partly Cloudy,270,2012-11-28 12:50:00
1:20 PM,42.8,32.0,66,30.06,6.2,West,10.4,-,N/A,,Partly Cloudy,270,2012-11-28 13:20:00
1:50 PM,42.8,32.0,66,30.06,6.2,West,6.9,-,N/A,,Partly Cloudy,270,2012-11-28 13:50:00
2:20 PM,41.0,28.4,61,30.06,6.2,WNW,5.8,-,N/A,,Partly Cloudy,300,2012-11-28 14:20:00
2:50 PM,39.2,28.4,65,30.06,6.2,WNW,5.8,-,N/A,,Partly Cloudy,290,2012-11-28 14:50:00
3:20 PM,37.4,28.4,70,30.06,6.2,WNW,5.8,-,N/A,,Partly Cloudy,300,2012-11-28 15:20:00
3:50 PM,37.4,26.6,65,30.06,6.2,NW,5.8,-,N/A,,Partly Cloudy,320,2012-11-28 15:50:00
4:20 PM,37.4,28.4,70,30.06,-9999.0,NW,4.6,-,N/A,,Clear,320,2012-11-28 16:20:00
4:50 PM,35.6,26.6,70,30.06,-9999.0,WNW,5.8,-,N/A,,Clear,290,2012-11-28 16:50:00
5:20 PM,37.4,28.4,70,30.06,-9999.0,WSW,9.2,-,N/A,,Clear,250,2012-11-28 17:20:00
5:50 PM,35.6,26.6,70,30.06,6.2,WNW,4.6,-,N/A,,Partly Cloudy,290,2012-11-28 17:50:00
6:20 PM,33.8,26.6,75,30.06,6.2,WNW,6.9,-,N/A,,Partly Cloudy,290,2012-11-28 18:20:00
6:50 PM,35.6,28.4,75,30.06,6.2,WNW,5.8,-,N/A,,Partly Cloudy,300,2012-11-28 18:50:00
7:20 PM,33.8,26.6,75,30.09,6.2,NW,3.5,-,N/A,,Partly Cloudy,310,2012-11-28 19:20:00
7:50 PM,33.8,26.6,75,30.09,6.2,NW,3.5,-,N/A,,Partly Cloudy,320,2012-11-28 19:50:00
8:20 PM,35.6,26.6,70,30.06,6.2,NNW,4.6,-,N/A,,Partly Cloudy,330,2012-11-28 20:20:00
9:20 PM,33.8,28.4,81,30.06,-9999.0,West,4.6,-,N/A,,Clear,270,2012-11-28 21:20:00
9:50 PM,33.8,30.2,87,30.06,-9999.0,WSW,8.1,-,N/A,,Clear,240,2012-11-28 21:50:00